This demonstration page uses our WeatherBlox Daily Observations layout. Learn more.

Left ArrowRight Arrow

34.74481, -87.66753

Hourly Observations for December 27, 2019

Temp ( °F °C ) Dew Point ( °F °C ) Humidity (%) Winds ( mph kmh ) Pressure ( in mb ) Visibility ( mi km ) Precip ( " mm )
12:53 am 00:53 Cloudy 58 14.4 54 12.2 87 87 Calm 30.17 1022 10 16 0.00 0.00
1:53 am 01:53 Cloudy 58 14.4 54 12.2 87 87 E 5 7 30.17 1022 10 16 0.00 0.00
2:53 am 02:53 Cloudy 57 13.9 51 10.6 81 81 Calm 30.18 1022 10 16 0.00 0.00
3:53 am 03:53 Cloudy with Light Rain 57 13.9 51 10.6 81 81 E 3 6 30.19 1023 10 16 0.00 0.00
4:53 am 04:53 Cloudy 56 13.3 51 10.6 84 84 E 5 7 30.20 1023 10 16 0.00 0.00
5:30 am 05:30 Cloudy 56 13.3 50 10 81 81 E 3 6 30.21 1023 10 16 0.00 0.00
5:53 am 05:53 Cloudy 56 13.3 50 10 81 81 ESE 5 7 30.20 1023 10 16 0.00 0.00
6:16 am 06:16 Cloudy 56 13.3 49 9.4 77 77 ESE 5 7 30.22 1023 10 16 0.00 0.00
6:53 am 06:53 Cloudy 55 12.8 50 10 83 83 E 3 6 30.22 1023 10 16 0.00 0.00
7:25 am 07:25 Cloudy 55 12.8 51 10.6 87 87 E 3 6 30.25 1024 10 16 0.00 0.00
7:53 am 07:53 Cloudy 56 13.3 52 11.1 87 87 E 3 6 30.25 1024 10 16 0.00 0.00
8:53 am 08:53 Cloudy 57 13.9 53 11.7 87 87 ENE 3 6 30.25 1025 10 16 0.00 0.00
9:53 am 09:53 Cloudy 58 14.4 54 12.2 87 87 E 3 6 30.26 1025 10 16 0.00 0.00
10:53 am 10:53 Partly Cloudy 61 16.1 54 12.2 78 78 E 3 6 30.23 1024 10 16 0.00 0.00
11:53 am 11:53 Cloudy 62 16.7 55 12.8 78 78 E 5 7 30.21 1023 10 16 0.00 0.00
12:53 pm 12:53 Cloudy 62 16.7 54 12.2 75 75 E 5 7 30.18 1022 10 16 0.00 0.00
1:53 pm 13:53 Cloudy 63 17.2 55 12.8 76 76 E 7 11 30.16 1021 10 16 0.00 0.00
2:53 pm 14:53 Mostly Cloudy 63 17.2 55 12.8 76 76 E 5 7 30.17 1022 10 16 0.00 0.00
3:53 pm 15:53 Mostly Cloudy 63 17.2 54 12.2 73 73 E 5 7 30.16 1021 10 16 0.00 0.00
4:53 pm 16:53 Mostly Clear 60 15.6 54 12.2 80 80 E 5 7 30.16 1021 10 16 0.00 0.00
5:53 pm 17:53 Clear 58 14.4 53 11.7 84 84 ESE 3 6 30.17 1022 10 16 0.00 0.00
6:53 pm 18:53 Clear 58 14.4 53 11.7 84 84 ESE 7 11 30.16 1022 10 16 0.00 0.00
7:53 pm 19:53 Mostly Cloudy 59 15 54 12.2 83 83 E 8 13 30.16 1021 10 16 0.00 0.00
8:53 pm 20:53 Cloudy 59 15 54 12.2 83 83 ESE 6 9 30.16 1022 10 16 0.00 0.00
9:53 pm 21:53 Clear 56 13.3 52 11.1 87 87 SE 6 9 30.16 1022 10 16 0.00 0.00
10:53 pm 22:53 Cloudy 57 13.9 53 11.7 87 87 ESE 3 6 30.15 1021 10 16 0.00 0.00
11:19 pm 23:19 Cloudy 57 13.9 53 11.7 87 87 E 3 6 30.15 1021 10 16 0.00 0.00
11:53 pm 23:53 Cloudy 58 14.4 53 11.7 84 84 E 3 6 30.14 1021 10 16 0.00 0.00

Powered by AerisWeather